Content
SEND FEEDBACK

Daily
Averages
Monthly
Summary
United States of America

AGANA, GUAM


Home > North America > United States > Guam
Elevation: 246 feet     Latitude: 13 29N     Longitude: 144 48E

WEATHER
 
SELECT A DAY
Number of Records: 209,285;   Date Range: 1/1/95 - 9/16/14
 
SHARE

PRINT THIS DATA

[ ← Previous Day ]
WEATHER ALMANAC - MARCH 29, 2014
[ Next Day → ]
[ °C ]   °F
Weather ElementAverageHighLow
Temperature82.5 °F88 °F (12:54 pm)77 °F (1:54 am)
Dewpoint71.7 °F73.9 °F (9:54 pm)70 °F (9:54 am)
Humidity70.5 %84 % (1:54 am)55 % (12:54 pm)
Barometer29.88 in29.92 in (7:54 am)29.82 in (3:54 pm)
Wind Speed10.5 mph15 mph (12:10 pm)
Wind Gust21.9 mph (2:54 pm)
Weather ElementAverage
Visibility10 mi
Wind DirectionENE (63.2 °)

Weather ElementTotal
Precipitation---
Cooling Degree Days17.5 (Base 65)
Growing Degree Days32.5 (Base 50)
Averaged from 25 records on March 29, 2014
WEATHER CONDITIONS BREAKOUT
WIND DIRECTION BREAKOUT
WEATHER BY HOUR - MARCH 29, 2014
[ °C ]   °F
Local TimeTemperatureDewpointHumidityBarometerVisibilityWind DirectionWind SpeedGust SpeedPrecipitationEventsConditions
1:54 AM77.0 °F72.0 °F84 %29.88 in10.0 miNE (50°)6.9 mphClear
2:54 AM77.0 °F72.0 °F84 %29.88 in10.0 miNE (50°)6.9 mphClear
3:54 AM77.0 °F72.0 °F84 %29.88 in10.0 miENE (60°)5.8 mphClear
4:54 AM78.1 °F71.1 °F79 %29.88 in10.0 miENE (60°)8.1 mphPartly Cloudy
5:54 AM77.0 °F71.1 °F82 %29.89 in10.0 miENE (60°)8.1 mphClear
6:54 AM78.1 °F71.1 °F79 %29.90 in10.0 miENE (60°)6.9 mphClear
7:54 AM81.0 °F72.0 °F74 %29.92 in10.0 miENE (60°)8.1 mphClear
8:54 AM82.9 °F71.1 °F67 %29.92 in10.0 miENE (70°)12.7 mphPartly Cloudy
9:54 AM84.9 °F70.0 °F61 %29.92 in10.0 miEast (90°)12.7 mphPartly Cloudy
10:54 AM86.0 °F70.0 °F59 %29.90 in10.0 miENE (60°)12.7 mphPartly Cloudy
11:47 AM87.8 °F71.6 °F58 %29.91 in10.0 miENE (70°)12.7 mph19.6 mphMostly Cloudy
11:54 AM87.1 °F72.0 °F61 %29.88 in10.0 miENE (60°)13.8 mphMostly Cloudy
12:10 PM87.8 °F71.6 °F58 %29.90 in10.0 miEast (90°)15.0 mphScattered Clouds
12:54 PM88.0 °F70.0 °F55 %29.86 in10.0 miEast (100°)12.7 mph18.4 mphPartly Cloudy
1:54 PM87.1 °F70.0 °F57 %29.84 in10.0 miENE (60°)12.7 mphPartly Cloudy
2:54 PM87.1 °F71.1 °F59 %29.83 in10.0 miENE (70°)13.8 mph21.9 mphScattered Clouds
3:54 PM86.0 °F71.1 °F61 %29.82 in10.0 miNE (50°)13.8 mphScattered Clouds
4:54 PM86.0 °F72.0 °F63 %29.83 in10.0 miENE (60°)12.7 mphScattered Clouds
5:54 PM84.0 °F72.0 °F67 %29.84 in10.0 miENE (60°)13.8 mphPartly Cloudy
6:54 PM81.0 °F73.0 °F77 %29.86 in10.0 miNE (50°)8.1 mphClear
7:54 PM81.0 °F73.0 °F77 %29.88 in10.0 miENE (60°)8.1 mphClear
8:54 PM81.0 °F73.0 °F77 %29.89 in10.0 miENE (60°)9.2 mphOvercast
9:54 PM81.0 °F73.9 °F79 %29.91 in10.0 miENE (60°)9.2 mphMostly Cloudy
10:54 PM80.1 °F73.0 °F79 %29.91 in10.0 miENE (60°)10.4 mphOvercast
11:54 PM79.0 °F73.0 °F82 %29.89 in10.0 miNE (50°)8.1 mphPartly Cloudy
Hourly data recorded from PGUM, located miles away from Agana, Guam







STORIES FROM OUR PARTNERS